Regional Weather Roundup
Issued by NWS

Home | Current Version | Previous Version | Text Only | Print | Product List | Glossary Off
Versions: 1 2 3 4 5 6 7 8 9 10 11 12 13 14 15 16 17 18 19 20 21 22 23 24 25 26 27 28 29 30 31 32 33 34 35 36 37 38 39 40 41 42 43 44 45 46 47 48 49 50

000
ASUS43 KLOT 311808
RWRIL

ILLINOIS REGIONAL WEATHER ROUNDUP
NATIONAL WEATHER SERVICE CHICAGO/ROMEOVILLE IL
100 PM CDT MON AUG 31 2015

NOTE: "FAIR" INDICATES FEW OR NO CLOUDS BELOW 12,000 FEET WITH NO
SIGNIFICANT WEATHER AND/OR OBSTRUCTIONS TO VISIBILITY.

* THESE STATIONS ARE NOT UNDER NWS QUALITY CONTROL. THEY ALSO MAY NOT
  REPORT WEATHER SUCH AS PRECIPITATION OR FOG.

ILZ001-002-007-009-015-016-024-311900-
NORTHWEST ILLINOIS

CITY           SKY/WX    TMP DP  RH WIND       PRES   REMARKS
MOLINE         SUNNY     86  70  58 S8        30.03F HX  90
6HR MIN TEMP:  60; 6HR MAX TEMP:  86;

STERLING*        N/A    N/A N/A N/A MISG        N/A
SAVANNA*       MOSUNNY   83  69  61 S3        30.04S HX  87
$$

ILZ003-004-008-010-011-017-018-311900-
NORTH CENTRAL ILLINOIS

CITY           SKY/WX    TMP DP  RH WIND       PRES   REMARKS
ROCKFORD       MOSUNNY   83  69  62 S7        30.07F HX  86
6HR MIN TEMP:  59; 6HR MAX TEMP:  83;

FREEPORT*      MOSUNNY   81  68  66 S7        30.07F HX  83
ROCHELLE*      MOSUNNY   82  69  66 S3        30.06F HX  85
DE KALB*       MOSUNNY   81  70  69 CALM      30.08F HX  84
PERU*          PTSUNNY   84  67  57 S3        30.06F HX  86
$$

ILZ005-006-012>014-019>023-311900-
NORTHEAST ILLINOIS

CITY           SKY/WX    TMP DP  RH WIND       PRES   REMARKS
CHICAGO-OHARE  MOSUNNY   83  67  58 CALM      30.06F HX  85
6HR MIN TEMP:  62; 6HR MAX TEMP:  83;

CHICAGO-MIDWAY MOSUNNY   85  67  54 CALM      30.06F HX  87
6HR MIN TEMP:  66; 6HR MAX TEMP:  85;

AURORA         MOSUNNY   83  69  62 CALM      30.07F HX  86
6HR MIN TEMP:  59; 6HR MAX TEMP:  84;

LANSING*       SUNNY     82  68  63 S7        30.08S HX  85
JOLIET*        MOSUNNY   84  70  62 CALM      30.07S HX  89
WAUKEGAN       MOSUNNY   76  68  76 E7        30.06F
6HR MIN TEMP:  62; 6HR MAX TEMP:  78;

DUPAGE AIRPORT SUNNY     82  68  62 CALM      30.06F HX  85
6HR MIN TEMP:  58; 6HR MAX TEMP:  83;

KANKAKEE*      MOSUNNY   87  73  63 S5        30.08F HX  93
WHEELING       MOSUNNY   81  66  60 CALM      30.07F HX  83
6HR MIN TEMP:  62; 6HR MAX TEMP:  83;

MORRIS*        SUNNY     82  71  67 CALM      30.06S HX  86
ROMEOVILLE*    SUNNY     83  67  59 SE3       30.07F HX  85
NORTHERLY ISL    N/A     73  68  84 E5          N/A
$$

LMZ740>746-311900-
SOUTHERN LAKE MICHIGAN

STATION/POSITION SKY/WX   TEMP    WIND        PRES    VSBY  WAVE
                          AIR SEA DIR/SP/G                  HT/PER
                          (F)     (DEG/KT/KT) (MB)    (MI)  (FT/S)
SOUTHERN BUOY              69 71  180/  4/  6 1018.1F         0
WILMETTE HARBOR            66 63  280/  6/  6   N/A           0
HARRISON CRIB              70      90/  9/ 10   N/A
BURNHAM HARBOR             73      90/  5/  6   N/A
CALUMET HARBOR             73      50/  7/  9   N/A
BURNS HARBOR               77      40/  4/  5 1019.3F
MICHIGAN CITY              77     340/  4/  4   N/A
MICHIGAN CITY 6N           73 73   20/  4/  4   N/A           0
ST. JOSEPH                 71 74  350/  2/  4   N/A           0
$$

ILZ025>027-034>036-040-047-049-050-058-095>099-311900-
WEST-CENTRAL ILLINOIS

CITY           SKY/WX    TMP DP  RH WIND       PRES   REMARKS
QUINCY         SUNNY     87  70  56 S10       30.03F HX  92
GALESBURG*     MOSUNNY   85  72  65 SE6       30.04F HX  90
MACOMB*        MOSUNNY   89  69  52 SE7       30.05F HX  93
JACKSONVILLE*  MOSUNNY   90  71  54 SE6       30.04F HX  96
PITTSFIELD*    MOSUNNY   89  71  54 S6        30.05F HX  95
$$

ILZ028>032-037-038-041>044-048-051>054-059>061-311900-
CENTRAL ILLINOIS

CITY           SKY/WX    TMP DP  RH WIND       PRES   REMARKS
PONTIAC        MOSUNNY   85  73  66 S6        30.07F HX  92
BLOOMINGTON    PTSUNNY   87  72  61 S9        30.08F HX  93
DECATUR        CLOUDY    83  71  67 S12       30.07F HX  87
PEORIA         MOSUNNY   89  71  55 S6        30.05F HX  95
6HR MIN TEMP:  68; 6HR MAX TEMP:  89;

LACON*         MOSUNNY   84  69  61 S5        30.04F HX  88
LINCOLN*       PTSUNNY   89  70  51 S6        30.04F HX  94
SPRINGFIELD    PTSUNNY   89  72  56 S7        30.04F HX  96
6HR MIN TEMP:  70; 6HR MAX TEMP:  89;

TAYLORVILLE    MOSUNNY   82  72  69 S6        30.06F HX  87
$$

ILZ033-039-045-046-055>057-062-063-311900-
EAST-CENTRAL ILLINOIS

CITY           SKY/WX    TMP DP  RH WIND       PRES   REMARKS
CHAMPAIGN      SUNNY     84  70  62 S7        30.08F HX  88
RANTOUL*       MOSUNNY   84  73  70 S9        30.08F HX  90
MATTOON        PTSUNNY   79  68  69 S12       30.09F HX  81
PARIS*         PTSUNNY   84  71  63 SW9       30.10F HX  89
$$

ILZ079-100>102-311900-
SOUTHWEST ILLINOIS

CITY           SKY/WX    TMP DP  RH WIND       PRES   REMARKS
ALTON          PTSUNNY   81  72  74 S9        30.06F HX  84
BELLEVILLE     PTSUNNY   85  76  73 VRB2      30.05F HX  94
CAHOKIA*       PTSUNNY   89  71  55 SE12      30.04F HX  95
SPARTA*        MOSUNNY   83  73  70 S8        30.08F HX  89
$$

ILZ064>066-069>071-074>076-080>082-084>086-088>090-092>094-311900-
SOUTH-CENTRAL ILLINOIS

CITY           SKY/WX    TMP DP  RH WIND       PRES   REMARKS
CARBONDALE     SUNNY     83  71  67 S6        30.09F HX  87
6HR MIN TEMP:  69; 6HR MAX TEMP:  84;

CAIRO*         SUNNY     82  72  71 CALM      30.10F HX  87
EFFINGHAM*     CLOUDY    75  71  85 S6        30.10F
MARION         MOSUNNY   84  70  61 MISG      30.10F HX  88
MT. VERNON     MOSUNNY   86  70  58 SE7       30.09F HX  90
SALEM*         PTSUNNY   84  72  68 CALM      30.09F HX  89
METROPOLIS*    SUNNY     84  72  65 CALM      30.11F HX  90
$$

ILZ067-068-072-073-078-083-087-091-311900-
SOUTHEAST ILLINOIS

CITY           SKY/WX    TMP DP  RH WIND       PRES   REMARKS
LAWRENCEVILLE  MOSUNNY   85  68  56 S8        30.10F HX  88
FLORA*         MOSUNNY   79  70  74 E3        30.10F HX  82
FAIRFIELD*     CLOUDY    84  71  63 SE3       30.08F HX  88
HARRISBURG*    SUNNY     85  69  58 S7        30.09F HX  88
ROBINSON*      MOSUNNY   84  69  60 S7        30.11F HX  88
CARMI*         SUNNY     84  70  64 CALM      30.09F HX  88
$$

ABBREVIATIONS USED IN REMARKS
   TC - TEMPERATURE IN CELSIUS
  WCI - WIND CHILL INDEX
   HX - HEAT INDEX
  VSB - VISIBILITY
$$




USA.gov is the U.S. government's official web portal to all federal, state and local government web resources and services.